Location: Unspecified
(0.0000°N, 0.0000°E)
Time: 13:41:16
(UTC+00:00)

Vanguard 1 - All Passes

Search period start: 20 July 2019 00:00
Search period end: 30 July 2019 00:00
Orbit: 653 x 3830 km, 34.3° (Epoch: 20 July)

Date Brightness Start Highest point End Pass type
(mag) Time Alt. Az. Time Alt. Az. Time Alt. Az.
20 Jul - 01:27:26 10° NW 01:49:08 46° NNE 02:03:51 10° E visible
20 Jul - 03:55:08 10° WNW 04:15:09 77° SW 04:26:00 10° SE visible
20 Jul - 06:28:48 10° W 06:37:05 19° SW 06:42:57 10° S daylight
20 Jul - 13:45:47 10° S 13:49:45 20° SE 13:55:05 10° E daylight
20 Jul - 16:03:17 10° WSW 16:10:07 69° NW 16:23:01 10° NE daylight
20 Jul - 18:26:09 10° WNW 18:35:08 26° NNW 18:48:59 10° NNE visible
20 Jul - 20:55:07 10° NW 21:06:28 18° N 21:20:06 10° NE visible
20 Jul - 23:22:54 10° NNW 23:41:04 27° NNE 23:57:33 10° ENE visible
21 Jul - 01:48:49 10° NW 02:11:20 58° NNE 02:25:48 10° ESE visible
21 Jul - 04:17:28 10° WNW 04:36:19 59° SW 04:46:43 10° SE visible
21 Jul - 06:54:47 10° WSW 06:58:20 12° SW 07:01:24 10° SSW daylight
21 Jul - 14:05:40 10° SSW 14:10:32 33° SE 14:17:59 10° ENE daylight
21 Jul - 16:24:36 10° WSW 16:31:36 48° NNW 16:44:22 10° NE daylight
21 Jul - 18:49:04 10° WNW 18:57:51 21° NNW 19:10:25 10° NNE visible
21 Jul - 21:18:10 10° NNW 21:30:25 18° N 21:44:32 10° NE visible
21 Jul - 23:44:22 10° NNW 00:04:12 33° NNE 00:21:11 10° E visible
22 Jul - 02:10:19 10° NW 02:33:15 71° NE 02:47:23 10° ESE visible
22 Jul - 04:40:19 10° WNW 04:57:22 44° SW 05:07:13 10° SSE visible
22 Jul - 14:26:03 10° SW 14:31:20 56° SE 14:40:13 10° ENE daylight
22 Jul - 16:46:16 10° W 16:53:23 35° NNW 17:05:30 10° NE daylight
22 Jul - 19:12:23 10° NW 19:20:53 18° N 19:32:17 10° NNE visible
22 Jul - 21:40:35 10° NNW 21:54:18 20° NNE 22:09:32 10° NE visible
23 Jul - 00:05:41 10° NW 00:26:58 40° NNE 00:44:14 10° E visible
23 Jul - 02:31:59 10° NW 02:54:55 87° NE 03:08:38 10° SE visible
23 Jul - 05:03:48 10° W 05:18:26 32° SW 05:27:29 10° SSE visible
23 Jul - 14:46:46 10° SW 14:52:17 90° ESE 15:01:56 10° NE daylight
23 Jul - 17:08:23 10° WNW 17:15:25 26° NNW 17:26:31 10° NNE daylight
23 Jul - 19:35:51 10° NW 19:44:14 16° N 19:54:54 10° NNE visible
23 Jul - 22:02:25 10° NNW 22:17:58 23° NNE 22:34:33 10° ENE visible
24 Jul - 00:26:56 10° NW 00:49:25 50° NNE 01:06:44 10° ESE visible
24 Jul - 02:53:57 10° WNW 03:16:22 76° SW 03:29:38 10° SE visible
24 Jul - 05:28:05 10° W 05:39:39 23° SW 05:47:26 10° S visible
24 Jul - 12:50:13 10° S 12:53:23 17° SE 12:57:11 10° E daylight
24 Jul - 15:07:50 10° WSW 15:13:27 59° NNW 15:23:19 10° NE daylight
24 Jul - 17:31:00 10° WNW 17:37:43 20° NNW 17:47:29 10° NNE daylight
24 Jul - 19:59:01 10° NNW 20:07:50 16° N 20:18:41 10° NE visible
24 Jul - 22:23:51 10° NNW 22:41:17 28° NNE 22:59:06 10° ENE visible
25 Jul - 00:48:13 10° NW 01:11:35 61° NE 01:28:45 10° ESE visible
25 Jul - 03:16:18 10° WNW 03:37:40 60° SW 03:50:25 10° SE visible
25 Jul - 05:53:32 10° WSW 06:01:06 15° SW 06:06:52 10° S daylight
25 Jul - 13:10:02 10° SSW 13:14:13 31° SE 13:19:55 10° ENE daylight
25 Jul - 15:29:15 10° W 15:34:55 39° NNW 15:44:24 10° NE daylight
25 Jul - 17:54:11 10° NW 18:00:19 16° N 18:08:31 10° NNE daylight
25 Jul - 20:21:31 10° NNW 20:31:31 17° NNE 20:43:39 10° NE visible
25 Jul - 22:45:03 10° NNW 23:04:14 34° NNE 23:23:01 10° E visible
26 Jul - 01:09:37 10° NW 01:33:31 74° NE 01:50:24 10° ESE visible
26 Jul - 03:39:10 10° WNW 03:58:54 46° SW 04:11:01 10° SSE visible
26 Jul - 13:30:27 10° SW 13:35:03 57° SE 13:41:53 10° ENE daylight
26 Jul - 15:51:07 10° W 15:56:38 27° NNW 16:05:13 10° NNE daylight
26 Jul - 18:17:48 10° NNW 18:23:11 13° N 18:29:54 10° NNE visible
26 Jul - 20:43:18 10° NNW 20:55:07 19° NNE 21:09:16 10° ENE visible
26 Jul - 23:06:08 10° NW 23:26:50 42° NNE 23:46:15 10° E visible
27 Jul - 01:31:13 10° NW 01:55:14 89° NE 02:11:44 10° SE visible
27 Jul - 04:02:39 10° W 04:20:12 35° SW 04:31:24 10° SSE visible
27 Jul - 13:51:15 10° WSW 13:56:01 81° NW 14:03:22 10° NE daylight
27 Jul - 16:13:30 10° WNW 16:18:36 19° NNW 16:25:48 10° NNE daylight
27 Jul - 18:41:25 10° NNW 18:46:20 12° N 18:52:11 10° NNE visible
27 Jul - 21:04:37 10° NNW 21:18:29 23° NNE 21:34:48 10° ENE visible
27 Jul - 23:27:13 10° NW 23:49:09 52° NE 00:08:53 10° ESE visible
28 Jul - 01:53:07 10° WNW 02:16:48 75° SW 02:32:48 10° SE visible
28 Jul - 04:26:57 10° W 04:41:39 26° SW 04:51:35 10° SSE visible
28 Jul - 11:54:15 10° S 11:57:09 17° SE 12:00:16 10° ESE daylight
28 Jul - 14:12:26 10° WSW 14:17:11 47° NNW 14:24:29 10° NE daylight
28 Jul - 16:36:38 10° NW 16:40:47 14° NNW 16:46:05 10° NNE daylight
28 Jul - 19:04:11 10° NNW 19:09:41 12° N 19:16:12 10° NNE visible
28 Jul - 21:25:40 10° NNW 21:41:30 28° NNE 21:59:46 10° E visible
28 Jul - 23:48:22 10° NW 00:11:13 63° NE 00:31:02 10° ESE visible
29 Jul - 02:15:23 10° WNW 02:38:17 61° SW 02:53:39 10° SE visible
29 Jul - 04:52:13 10° WSW 05:03:22 19° SW 05:11:29 10° S visible
29 Jul - 12:14:09 10° SSW 12:18:07 31° SE 12:22:43 10° E daylight
29 Jul - 14:34:03 10° W 14:38:35 29° NNW 14:45:15 10° NNE daylight
29 Jul - 17:01:07 10° NNW 17:03:15 11° N 17:05:37 10° N daylight
29 Jul - 19:25:50 10° NNW 19:33:04 14° NNE 19:41:51 10° NE visible
29 Jul - 21:46:35 10° NNW 22:04:10 34° NNE 22:23:58 10° E visible
